Previsão horária em Abja-Paluoja

Hoje, 18 Maio, Terça-feira

Tempo Temperatura Precipitação Vento Pressão Humidade
00:00 +10°C° 0 mm 1 m/s 747 mmHg 97%
01:00 +10°C° 0 mm 1 m/s 747 mmHg 97%
02:00 +9°C° 0 mm 1 m/s 747 mmHg 97%
03:00 +10°C° 0 mm 1 m/s 746 mmHg 97%
04:00 +10°C° 0 mm 1 m/s 746 mmHg 97%
05:00 +10°C° 0 mm 1 m/s 746 mmHg 97%
06:00 +10°C° 0 mm 2 m/s 746 mmHg 93%
07:00 +13°C° 0 mm 2 m/s 746 mmHg 90%
08:00 +13°C° 0 mm 3 m/s 746 mmHg 86%
09:00 +14°C° 0.1 mm 3 m/s 746 mmHg 84%
10:00 +14°C° 0.1 mm 3 m/s 746 mmHg 81%
11:00 +16°C° 0.1 mm 3 m/s 746 mmHg 79%
12:00 +16°C° 0.1 mm 3 m/s 746 mmHg 79%
13:00 +16°C° 0.1 mm 3 m/s 745 mmHg 78%
14:00 +16°C° 0.1 mm 3 m/s 745 mmHg 78%
15:00 +14°C° 0.2 mm 3 m/s 745 mmHg 82%
16:00 +13°C° 0.2 mm 3 m/s 745 mmHg 87%
17:00 +12°C° 0.2 mm 3 m/s 745 mmHg 91%
18:00 +12°C° 0.1 mm 3 m/s 744 mmHg 93%
19:00 +12°C° 0.1 mm 3 m/s 744 mmHg 94%
20:00 +12°C° 0.1 mm 3 m/s 744 mmHg 96%
21:00 +12°C° 0.1 mm 3 m/s 744 mmHg 96%
22:00 +12°C° 0.1 mm 3 m/s 744 mmHg 97%
23:00 +12°C° 0.1 mm 3 m/s 744 mmHg 97%

Amanhã, 19 Maio, Quarta-feira

Tempo Temperatura Precipitação Vento Pressão Humidade
00:00 +11°C° 0 mm 3 m/s 743 mmHg 98%
01:00 +11°C° 0 mm 3 m/s 743 mmHg 98%
02:00 +10°C° 0 mm 3 m/s 743 mmHg 98%
03:00 +10°C° 0 mm 2 m/s 743 mmHg 98%
04:00 +10°C° 0 mm 2 m/s 742 mmHg 98%
05:00 +10°C° 0 mm 2 m/s 742 mmHg 98%
06:00 +12°C° 0.4 mm 2 m/s 742 mmHg 98%
07:00 +12°C° 0.4 mm 2 m/s 742 mmHg 98%
08:00 +12°C° 0.4 mm 2 m/s 741 mmHg 98%
09:00 +12°C° 1.2 mm 2 m/s 742 mmHg 98%
10:00 +12°C° 1.2 mm 2 m/s 742 mmHg 98%
11:00 +12°C° 1.2 mm 2 m/s 742 mmHg 97%
12:00 +12°C° 0.6 mm 2 m/s 742 mmHg 97%
13:00 +10°C° 0.6 mm 2 m/s 742 mmHg 97%
14:00 +10°C° 0.6 mm 2 m/s 743 mmHg 97%
15:00 +10°C° 0.4 mm 3 m/s 743 mmHg 97%
16:00 +10°C° 0.4 mm 3 m/s 743 mmHg 97%
17:00 +9°C° 0.4 mm 3 m/s 744 mmHg 97%
18:00 +9°C° 0.4 mm 3 m/s 744 mmHg 97%
19:00 +9°C° 0.4 mm 3 m/s 744 mmHg 97%
20:00 +9°C° 0.4 mm 3 m/s 745 mmHg 97%
21:00 +8°C° 0.2 mm 3 m/s 745 mmHg 97%
22:00 +8°C° 0.2 mm 3 m/s 745 mmHg 97%
23:00 +8°C° 0.2 mm 3 m/s 746 mmHg 97%

Depois de amanhã, 20 Maio, Quinta-feira

Tempo Temperatura Precipitação Vento Pressão Humidade
00:00 +8°C° 0.3 mm 3 m/s 746 mmHg 97%
01:00 +8°C° 0.3 mm 3 m/s 746 mmHg 97%
02:00 +8°C° 0.3 mm 3 m/s 746 mmHg 96%
03:00 +7°C° 0.7 mm 3 m/s 747 mmHg 96%
04:00 +7°C° 0.7 mm 3 m/s 747 mmHg 96%
05:00 +7°C° 0.7 mm 2 m/s 748 mmHg 96%
06:00 +8°C° 0.1 mm 2 m/s 748 mmHg 92%
07:00 +9°C° 0.1 mm 2 m/s 748 mmHg 89%
08:00 +10°C° 0.1 mm 2 m/s 748 mmHg 85%
09:00 +12°C° 0 mm 3 m/s 748 mmHg 75%
10:00 +13°C° 0 mm 3 m/s 748 mmHg 66%
11:00 +14°C° 0 mm 3 m/s 748 mmHg 56%
12:00 +14°C° 0.1 mm 3 m/s 748 mmHg 58%
13:00 +14°C° 0.1 mm 3 m/s 748 mmHg 60%
14:00 +14°C° 0.1 mm 4 m/s 748 mmHg 63%
15:00 +14°C° 0 mm 4 m/s 748 mmHg 62%
16:00 +14°C° 0 mm 4 m/s 748 mmHg 60%
17:00 +15°C° 0 mm 4 m/s 748 mmHg 59%
18:00 +13°C° 0 mm 4 m/s 748 mmHg 63%
19:00 +12°C° 0 mm 4 m/s 748 mmHg 66%
20:00 +10°C° 0 mm 3 m/s 748 mmHg 70%
21:00 +9°C° 0 mm 3 m/s 748 mmHg 75%
22:00 +7°C° 0 mm 3 m/s 748 mmHg 79%
23:00 +6°C° 0 mm 2 m/s 749 mmHg 84%

21 Maio, Sexta-feira

Tempo Temperatura Precipitação Vento Pressão Humidade
00:00 +5°C° 0 mm 3 m/s 748 mmHg 88%
01:00 +5°C° 0 mm 3 m/s 748 mmHg 91%
02:00 +5°C° 0 mm 3 m/s 748 mmHg 95%
03:00 +5°C° 0 mm 3 m/s 748 mmHg 94%
04:00 +5°C° 0 mm 3 m/s 748 mmHg 94%
05:00 +5°C° 0 mm 3 m/s 748 mmHg 93%
06:00 +6°C° 0 mm 4 m/s 748 mmHg 85%
07:00 +8°C° 0 mm 4 m/s 748 mmHg 77%
08:00 +10°C° 0 mm 5 m/s 748 mmHg 69%
09:00 +10°C° 0.2 mm 5 m/s 749 mmHg 64%
10:00 +11°C° 0.2 mm 6 m/s 749 mmHg 59%
11:00 +11°C° 0.2 mm 6 m/s 749 mmHg 54%
12:00 +11°C° 0 mm 6 m/s 750 mmHg 49%
13:00 +13°C° 0 mm 6 m/s 750 mmHg 45%
14:00 +13°C° 0 mm 6 m/s 750 mmHg 40%
15:00 +13°C° 0 mm 6 m/s 750 mmHg 43%
16:00 +12°C° 0 mm 5 m/s 750 mmHg 46%
17:00 +12°C° 0 mm 5 m/s 750 mmHg 48%
18:00 +11°C° 0 mm 4 m/s 750 mmHg 58%
19:00 +9°C° 0 mm 3 m/s 750 mmHg 67%
20:00 +8°C° 0 mm 2 m/s 750 mmHg 76%
21:00 +8°C° 0 mm 2 m/s 750 mmHg 80%
22:00 +7°C° 0 mm 2 m/s 750 mmHg 85%
23:00 +6°C° 0 mm 2 m/s 750 mmHg 89%

22 Maio, Sábado

Tempo Temperatura Precipitação Vento Pressão Humidade
00:00 +7°C° 0 mm 3 m/s 750 mmHg 88%
01:00 +8°C° 0 mm 3 m/s 750 mmHg 88%
02:00 +8°C° 0 mm 3 m/s 750 mmHg 87%
03:00 +8°C° 0.1 mm 3 m/s 750 mmHg 89%
04:00 +9°C° 0.1 mm 3 m/s 750 mmHg 90%
05:00 +9°C° 0.1 mm 3 m/s 749 mmHg 92%
06:00 +10°C° 0 mm 4 m/s 749 mmHg 87%
07:00 +11°C° 0 mm 4 m/s 749 mmHg 83%
08:00 +12°C° 0 mm 5 m/s 748 mmHg 78%
09:00 +12°C° 0.1 mm 5 m/s 748 mmHg 78%
10:00 +11°C° 0.1 mm 6 m/s 748 mmHg 78%
11:00 +11°C° 0.1 mm 6 m/s 748 mmHg 77%
12:00 +11°C° 0.1 mm 6 m/s 748 mmHg 79%
13:00 +12°C° 0.1 mm 5 m/s 748 mmHg 80%
14:00 +12°C° 0.1 mm 5 m/s 748 mmHg 81%
15:00 +12°C° 0.2 mm 4 m/s 748 mmHg 83%
16:00 +12°C° 0.2 mm 4 m/s 748 mmHg 86%
17:00 +12°C° 0.2 mm 3 m/s 748 mmHg 88%
18:00 +12°C° 0.7 mm 3 m/s 748 mmHg 90%
19:00 +12°C° 0.7 mm 3 m/s 747 mmHg 93%
20:00 +12°C° 0.7 mm 4 m/s 747 mmHg 96%
21:00 +12°C° 0.5 mm 3 m/s 747 mmHg 96%
22:00 +11°C° 0.5 mm 3 m/s 747 mmHg 97%
23:00 +12°C° 0.5 mm 2 m/s 746 mmHg 98%

23 Maio, Domingo

Tempo Temperatura Precipitação Vento Pressão Humidade
00:00 +11°C° 0.5 mm 3 m/s 745 mmHg 97%
01:00 +11°C° 0.5 mm 3 m/s 745 mmHg 96%
02:00 +11°C° 0.5 mm 4 m/s 744 mmHg 95%
03:00 +11°C° 1.3 mm 4 m/s 743 mmHg 95%
04:00 +11°C° 1.3 mm 4 m/s 742 mmHg 96%
05:00 +11°C° 1.3 mm 4 m/s 742 mmHg 96%
06:00 +11°C° 1.6 mm 4 m/s 742 mmHg 96%
07:00 +9°C° 1.6 mm 5 m/s 742 mmHg 97%
08:00 +9°C° 1.6 mm 5 m/s 742 mmHg 97%
09:00 +10°C° 0.2 mm 5 m/s 743 mmHg 93%
10:00 +10°C° 0.2 mm 5 m/s 744 mmHg 88%
11:00 +12°C° 0.2 mm 5 m/s 744 mmHg 84%
12:00 +13°C° 0.1 mm 5 m/s 745 mmHg 74%
13:00 +14°C° 0.1 mm 5 m/s 745 mmHg 64%
14:00 +15°C° 0.1 mm 5 m/s 745 mmHg 54%
15:00 +15°C° 0.2 mm 5 m/s 745 mmHg 60%
16:00 +14°C° 0.2 mm 5 m/s 746 mmHg 66%
17:00 +13°C° 0.2 mm 4 m/s 746 mmHg 72%
18:00 +12°C° 0.1 mm 4 m/s 746 mmHg 77%
19:00 +11°C° 0.1 mm 3 m/s 746 mmHg 82%
20:00 +10°C° 0.1 mm 3 m/s 747 mmHg 87%
21:00 +9°C° 0 mm 3 m/s 747 mmHg 88%
22:00 +8°C° 0 mm 3 m/s 747 mmHg 89%
23:00 +7°C° 0 mm 3 m/s 748 mmHg 91%
Mostrar mais

Necessitamos do seu Consentimento

A Meteoprog e os seus Fornecedores de Serviços podem armazenar e aceder a dados pessoais como cookies, identificadores do dispositivo ou outras tecnologias semelhantes existentes no seu dispositivo e processar estes dados para personalizar conteúdos e anúncios, assim como funcionalidades nas redes sociais e análise de tráfego.

  • Armazenar e/ou aceder a informações no seu dispositivo

    Os cookies, identificadores do dispositivo ou outras informações podem ser armazenados ou acedidos no seu dispositivo, para os fins acima indicados.

  • Anúncios e conteúdos personalizados, medição de anúncios e conteúdos, dados sobre o público-alvo e desenvolvimento de produtos

    Os anúncios e os conteúdos podem ser personalizados com base num perfil. Podem ser adicionados dados adicionais para uma maior personalização dos anúncios e dos conteúdos. A eficácia dos anúncios e dos conteúdos pode ser medida. Podem ser obtidas informações sobre o público que visualizou os anúncios e os conteúdos. Estes dados podem ser usados para desenvolver ou melhorar sistemas, softwares ou a experiência do utilizador.

Ao clicar em "Eu concordo”, permitirá o uso de cookies, identificadores do dispositivo e web beacons mencionados ou outras tecnologias semelhantes. As configurações do navegador do seu dispositivo podem ser alteradas.

Para certos fins, podem ser invocados interesses legítimos ao invés de consentimento. Pode ler mais informação sobre este assunto na nossa Política de Privacidade e Cookies.